Voltar ao catálogo

STARLINK-34596

AtivoComunicaçõesVLEO
NORAD 64732·PAYLOAD·🇺🇸 United States

Lançado Jul 2, 2025 de Cape Canaveral Space Force Station

Loading…

Próximas Passagens (próximas 24 horas)

TLE

AtualizadoSource: CelesTrak SupGP

Época: Sep 15, 2026, 03:21 UTC

1 64732C 25144J   26258.14006944  .00052559  00000+0  15509-2 0  2584
2 64732  53.1607  18.4392 0001063  81.6725 312.4140 15.34404357    14

Acompanhe STARLINK-34596 em tempo real com AllMySat

Download on the App Store